Location: Geography Hall
(41.1195°N, 80.5706°W)
Time: 00:03:02
(UTC+00:00)

Cosmos 2082 - Pass Details

Date: 29 October 2020
Orbit: 832 x 857 km, 71.0° (Epoch: 03 December)

Event Time Altitude Azimuth Distance (km) Brightness Sun altitude
Rises 23:17:25 0° 342° (NNW) 3,435 7.0 -11.2°
Reaches altitude 10° 23:20:02 10° 350° (N) 2,497 6.2 -11.7°
Maximum altitude 23:25:26 40° 59° (ENE) 1,236 4.1 -12.7°
Drops below altitude 10° 23:30:47 10° 129° (SE) 2,483 5.7 -13.7°
Enters shadow 23:31:55 - 133° (SE) 2,883 6.1 -13.9°
